This is the latest recevied weather packets stored in our database for station/object NR6G-12. If no packets are shown the sender has not sent any weather packets the latest 10 day(s).
| Time | Temp. | Humidity | Pressure | Rain* | Wind** | Luminosity | Snow |
|---|---|---|---|---|---|---|---|
| 1777841640 | 13.33° C | 82% | 1011.8 hPa | 0 mm | - | - | - |
| 1777841280 | 13.33° C | 82% | 1011.9 hPa | 0 mm | - | - | - |
| 1777840920 | 12.22° C | 69% | 1011.9 hPa | 0 mm | - | - | - |
| 1777840560 | 12.22° C | 86% | 1011.9 hPa | 0 mm | - | - | - |
| 1777839840 | 12.22° C | 85% | 1012 hPa | 0 mm | - | - | - |
| 1777839480 | 13.33° C | 79% | 1012 hPa | 0 mm | - | - | - |
| 1777838760 | 14.44° C | 74% | 1012.3 hPa | 0 mm | - | - | - |
| 1777838040 | 13.89° C | 58% | 1011.6 hPa | 0 mm | - | - | - |
| 1777837680 | 13.33° C | 67% | 1011.6 hPa | 0 mm | - | - | - |
| 1777837320 | 13.33° C | 73% | 1011.8 hPa | 0 mm | - | - | - |
| 1777836960 | 13.89° C | 73% | 1011.8 hPa | 0 mm | - | - | - |
| 1777836600 | 13.89° C | 71% | 1011.9 hPa | 0 mm | - | - | - |
| 1777836240 | 15° C | 72% | 1012 hPa | 0 mm | - | - | - |
| 1777835880 | 15.56° C | 65% | 1012.1 hPa | 0 mm | - | - | - |
| 1777835520 | 15.56° C | 41% | 1012.1 hPa | 0 mm | - | - | - |
| 1777835160 | 16.11° C | 46% | 1012.1 hPa | 0 mm | - | - | - |
| 1777833720 | 15° C | 41% | 1012.2 hPa | 0 mm | - | - | - |
| 1777833360 | 14.44° C | 41% | 1012.2 hPa | 0 mm | - | - | - |
| 1777833000 | 14.44° C | 47% | 1012.2 hPa | 0 mm | - | - | - |
| 1777831200 | 16.11° C | 43% | 1012 hPa | 0 mm | - | - | - |
| 1777830840 | 16.11° C | 46% | 1012.9 hPa | 0 mm | - | - | - |
| 1777830480 | 15.56° C | 48% | 1012.7 hPa | 0 mm | - | - | - |
| 1777830120 | 15.56° C | 42% | 1012.7 hPa | 0 mm | - | - | - |
| 1777829760 | 15.56° C | 45% | 1012.6 hPa | 0 mm | - | - | - |
| 1777829040 | 15.56° C | 52% | 1012.5 hPa | 0 mm | - | - | - |
* Rain latest hour (hover to see other rain measurements)
** Current wind speed in m/s (hover to see current wind gust speed)